This is the latest recevied weather packets stored in our database for station/object HEBOWX. If no packets are shown the sender has not sent any weather packets the latest 10 day(s).
| Time | Temp. | Humidity | Pressure | Rain* | Wind** | Luminosity | Snow |
|---|---|---|---|---|---|---|---|
| 1777759222 | 17.22° C | 45% | 1011.4 hPa | 0 mm | - | - | - |
| 1777758921 | 17.22° C | 45% | 1011.4 hPa | 0 mm | - | - | - |
| 1777758621 | 16.67° C | 45% | 1011.3 hPa | 0 mm | - | - | - |
| 1777758321 | 16.67° C | 45% | 1011.5 hPa | 0 mm | - | - | - |
| 1777758021 | 16.67° C | 45% | 1011.2 hPa | 0 mm | - | - | - |
| 1777757721 | 17.22° C | 44% | 1011.2 hPa | 0 mm | - | - | - |
| 1777757421 | 16.67° C | 44% | 1011.2 hPa | 0 mm | - | - | - |
| 1777757121 | 16.67° C | 44% | 1011.2 hPa | 0 mm | - | - | - |
| 1777756821 | 16.67° C | 45% | 1011.3 hPa | 0 mm | - | - | - |
| 1777756521 | 16.11° C | 46% | 1011.3 hPa | 0 mm | - | - | - |
| 1777756221 | 15.56° C | 47% | 1011.3 hPa | 0 mm | - | - | - |
| 1777755921 | 15.56° C | 48% | 1011.4 hPa | 0 mm | - | - | - |
| 1777755621 | 15° C | 49% | 1011.4 hPa | 0 mm | - | - | - |
| 1777755321 | 14.44° C | 49% | 1011.4 hPa | 0 mm | - | - | - |
| 1777755021 | 13.89° C | 51% | 1011.3 hPa | 0 mm | - | - | - |
| 1777754722 | 13.33° C | 53% | 1011.3 hPa | 0 mm | - | - | - |
| 1777754421 | 13.33° C | 54% | 1011.4 hPa | 0 mm | - | - | - |
| 1777754121 | 13.33° C | 55% | 1011.3 hPa | 0 mm | - | - | - |
| 1777753821 | 13.33° C | 55% | 1011.5 hPa | 0 mm | - | - | - |
| 1777753521 | 13.33° C | 55% | 1011.5 hPa | 0 mm | - | - | - |
| 1777753221 | 13.33° C | 54% | 1011.5 hPa | 0 mm | - | - | - |
| 1777752921 | 13.33° C | 55% | 1011.6 hPa | 0 mm | - | - | - |
| 1777752622 | 13.33° C | 55% | 1011.6 hPa | 0 mm | - | - | - |
| 1777752321 | 12.78° C | 55% | 1011.5 hPa | 0 mm | - | - | - |
| 1777752021 | 13.33° C | 55% | 1011.6 hPa | 0 mm | - | - | - |
* Rain latest hour (hover to see other rain measurements)
** Current wind speed in m/s (hover to see current wind gust speed)